Location: Observatory Park - Geauga Park District
(41.5832°N, 81.0716°W)
Time: 22:11:28
(UTC-04:00)

Envisat - Pass Details

Date: 27 September 2021
Orbit: 764 x 766 km, 98.2° (Epoch: 17 October)

Event Time Altitude Azimuth Distance (km) Brightness Sun altitude
Rises 05:24:57 0° 29° (NNE) 3,236 7.0 -21.5°
Reaches altitude 10° 05:27:58 10° 48° (NE) 2,304 6.4 -21.0°
Maximum altitude 05:31:27 18° 92° (E) 1,784 5.8 -20.4°
Drops below altitude 10° 05:34:55 10° 135° (SE) 2,292 5.8 -19.7°
Sets 05:37:54 0° 154° (SSE) 3,212 6.4 -19.2°
